Location: Dana
(41.8364°N, 106.7042°W)
Time: 13:23:23
(UTC+00:00)

Altair - Pass Details

Date: 10 May 2026
Orbit: 1501 x 1682 km, 47.2° (Epoch: 6 June)

Event Time Altitude Azimuth Distance (km) Brightness Sun altitude
Rises 14:49:52 0° 256° (WSW) 4,881 9.6 31.4°
Reaches altitude 10° 14:53:00 10° 258° (WSW) 3,911 9.2 32.0°
Maximum altitude 15:03:07 74° 344° (NNW) 1,741 8.3 33.9°
Drops below altitude 10° 15:13:19 10° 69° (ENE) 3,937 10.7 35.8°
Sets 15:16:29 0° 72° (ENE) 4,915 10.9 36.4°
